Location: Unspecified
(49.8670°N, 0.0000°E)
Time: 21:54:11
(UTC+00:00)

Vanguard 1 - Pass Details

Date: 25 June 2019
Orbit: 653 x 3830 km, 34.3° (Epoch: 15 July)

Event Time Altitude Azimuth Distance (km) Brightness Sun altitude
Rises 23:41:07 0° 200° (SSW) 7,960 - -16.6°
Reaches altitude 10° 23:48:47 10° 188° (S) 6,820 - -16.7°
Exits shadow 23:56:33 19° 169° (S) 5,777 13.3 -16.7°
Maximum altitude 00:02:51 22° 148° (SSE) 5,175 13.2 -16.7°
Drops below altitude 10° 00:13:43 10° 105° (ESE) 5,212 13.6 -16.7°
Sets 00:18:19 0° 92° (E) 5,731 14.0 -16.6°
